星链-36550(STARLINK-36550)

导读

STARLINK-36550是美国SpaceX星链计划的卫星,于2026年1月18日发射。它属于低轨通信卫星,旨在为全球提供高速互联网接入服务,尤其覆盖偏远地区。星链计划通过大规模卫星组网,支撑地面宽带服务,该卫星的入轨进一步扩充了星链星座的通信覆盖能力与服务容量。

基本信息
目录编号:
67495
目录名称:
STARLINK-36550
国际标识:
2026-012C
轨道中心:
EARTH
卫星名称:
星链-36550
卫星全名:
星链-36550(STARLINK-36550)
卫星状态:
在轨 (已飞行229 天)
发射日期:
2026-01-18 UTC
国别 :
美国 (US)
星等 :
--
轨道信息
数据来源 国际轨道数据
星历时间: 2026-09-03T18:36:37+0800
1天前
查看轨道信息
半长轴: 6861.183km
偏心率: 0.0001496
轨道倾角: 43.003°
近地点辐角 272.826°
升交点赤经 30.834°
平近点角 87.242°
近地点: 482.019km
远地点: 484.073km
周期: 94.267分钟
每日圈数: 15.275812
详细信息
固有亮度:
5
最大亮度:
2.5
卫星平台:
Starlink V1.0
覆盖范围:
全球
运营商:
太空探索技术公司
运营商所在国:
美国
制造商(研发单位):
太空探索技术公司
制造商所在国:
美国
使用方式:
暂无
卫星简介
Starlink 计划是 SpaceX 推出的全球卫星互联网项目,通过发射低轨道卫星,为全球尤其是偏远地区提供高速、低延迟的互联网服务。自 2019 年起,Starlink 已部署数千颗卫星,旨在缩小全球数字鸿沟,推动互联网普及。该项目还为军事、航空等行业提供通信支持,带来广泛经济效益。
2D轨道图
3D轨道图
轨道高度分析图
轨道倾角分析图
轨道综合分析图
查看轨道综合分析图
交会数据列表
事件ID 空间交会对象 最接近时刻(TCA) 交会距离 交会风险概率(CRP) 交会风险指数(CRI) 操作
CDM_260906-053106-228406-749521
2026-09-06T
05:31:06+0000
0.109 km
中距离
1.036234E-3 极高风险 0.95
CDM_260906-142305-560706-749521
2026-09-06T
14:23:18+0000
0.521 km
远距离
7.852985E-5 中风险 0.73
CDM_260906-181805-560706-749521
2026-09-06T
18:18:41+0000
0.586 km
远距离
5.663997E-5 中风险 0.7
CDM_260906-064405-919606-749521
2026-09-06T
06:44:54+0000
0.867 km
远距离
3.27158E-5 中风险 0.65
CDM_260906-070506-228406-749521
2026-09-06T
07:05:15+0000
1.670 km
极远距离
3.140929E-6 低风险 0.45
CDM_260906-081905-919606-749521
2026-09-06T
08:19:03+0000
1.824 km
极远距离
2.795931E-6 低风险 0.44
CDM_260906-035606-228406-749521
2026-09-06T
03:56:57+0000
1.848 km
极远距离
2.361242E-6 低风险 0.42